Weather History for Ireland West Airport Knock, Ireland

Change the Weather History Date:

Tuesday, May 28, 2013

  Actual Average Record
Temperature  
Mean Temperature 47 °F -  
Max Temperature 52 °F - - ()
Min Temperature 42 °F - - ()
Degree Days  
Heating Degree Days 18    
Moisture  
Dew Point 46 °F    
Average Humidity 90    
Maximum Humidity 100    
Minimum Humidity 76    
Precipitation  
Precipitation 0.31 in - - ()
Sea Level Pressure  
Sea Level Pressure 29.57 in    
Wind  
Wind Speed 6 mph ()    
Max Wind Speed 13 mph    
Max Gust Speed -    
Visibility 6.5 miles    
Events Rain    
T = Trace of Precipitation, MM = Missing Value Source: Averaged Metar Reports

Daily Weather History Graph

Daily Weather History Graph

Search for Another Location

Airport:

Trip Planner

Search our weather history database for the weather conditions in past years. The results will help you decide how hot, cold, wet, or windy it might be!

Date:

Astronomy

May. 28, 2013 Rise Set
Actual Time 5:14 AM IST 9:51 PM IST
Civil Twilight 4:24 AM IST 10:41 PM IST
Nautical Twilight 3:05 AM IST 12:02 AM IST
Astronomical Twilight Sun does not rise Sun does not rise
Moon 12:07 AM IST (5/28) 9:00 AM IST (5/28)
Length of Visible Light 18h 16m
Length of Day
16h 36m
Waning Gibbous, 85% of the Moon is Illuminated
May 28
Waning Gibbous
May 31
Last Quarter
Jun 8
New
Jun 16
First Quarter
Jun 23
Full

Hourly Weather History & Observations

Time (IST) Temp. Windchill Dew Point Humidity Pressure Visibility Wind Dir Wind Speed Gust Speed Precip Events Conditions
1:00 AM 43 °F - 43 °F 99% 29.48 in - SSW 6.7 mph - -  
6:00 AM 42.8 °F 40.1 °F 42.8 °F 100% 29.47 in 6.2 mi SW 4.6 mph - N/A   Mostly Cloudy
7:00 AM 44 °F - 44 °F 99% 29.52 in 9 mi SW 6.7 mph - -   Mostly Cloudy
7:00 AM 44.6 °F 41.4 °F 44.6 °F 100% 29.47 in 6.2 mi SW 5.8 mph - N/A   Mostly Cloudy
7:30 AM 44.6 °F 41.4 °F 44.6 °F 100% 29.50 in 6.2 mi SW 5.8 mph - N/A Rain Light Rain Showers
8:00 AM 46.4 °F 43.5 °F 44.6 °F 93% 29.50 in 6.2 mi WSW 5.8 mph - N/A   Mostly Cloudy
8:30 AM 46.4 °F 42.9 °F 44.6 °F 93% 29.50 in 6.2 mi WSW 6.9 mph - N/A   Mostly Cloudy
9:00 AM 48.2 °F - 44.6 °F 87% 29.53 in 6.2 mi WSW 5.8 mph - N/A   Mostly Cloudy
9:30 AM 48.2 °F - 44.6 °F 87% 29.53 in 6.2 mi WSW 6.9 mph - N/A Rain Light Rain Showers
10:00 AM 48.2 °F - 46.4 °F 93% 29.53 in 5.0 mi WSW 9.2 mph - N/A Rain Light Rain Showers
10:30 AM 48.2 °F - 46.4 °F 93% 29.56 in 6.2 mi West 12.7 mph - N/A Rain Light Rain Showers
11:00 AM 50.0 °F - 46.4 °F 87% 29.56 in 6.2 mi WNW 11.5 mph - N/A Rain Light Rain Showers
11:30 AM 48.2 °F - 46.4 °F 93% 29.56 in 6.2 mi West 10.4 mph - N/A Rain Light Rain Showers
12:00 PM 48.2 °F - 44.6 °F 87% 29.56 in 6.2 mi West 8.1 mph - N/A   Mostly Cloudy
12:30 PM 50.0 °F - 46.4 °F 87% 29.56 in 6.2 mi West 9.2 mph - N/A Rain Light Rain Showers
1:00 PM 48 °F - 46 °F 88% 29.60 in 4 mi West 6.7 mph - - Rain Light Rain Showers
1:00 PM 48.2 °F - 46.4 °F 93% 29.59 in 4.3 mi West 5.8 mph - N/A   Mostly Cloudy
1:30 PM 50.0 °F - 46.4 °F 87% 29.59 in 6.2 mi WNW 6.9 mph - N/A Rain Light Rain Showers
2:00 PM 48.2 °F - 44.6 °F 87% 29.59 in 6.2 mi NNW 1.2 mph - N/A   Scattered Clouds
2:30 PM 51.8 °F - 44.6 °F 76% 29.59 in 6.2 mi North 3.5 mph - N/A   Scattered Clouds
3:00 PM 50.0 °F - 46.4 °F 87% 29.59 in 6.2 mi West 5.8 mph - N/A   Mostly Cloudy
3:30 PM 50.0 °F - 46.4 °F 87% 29.62 in 6.2 mi North 6.9 mph - N/A Rain Light Rain Showers
4:00 PM 48.2 °F - 46.4 °F 93% 29.62 in 6.2 mi North 4.6 mph - N/A Rain Light Rain Showers
4:30 PM 48.2 °F - 46.4 °F 93% 29.62 in 5.6 mi NNW 2.3 mph - N/A Rain Light Rain Showers
5:00 PM 48.2 °F - 46.4 °F 93% 29.62 in 6.2 mi West 5.8 mph - N/A Rain Light Rain Showers
5:30 PM 50.0 °F - 46.4 °F 87% 29.62 in 6.2 mi West 8.1 mph - N/A   Mostly Cloudy
6:00 PM 50.0 °F - 48.2 °F 94% 29.62 in 6.2 mi West 5.8 mph - N/A   Scattered Clouds
7:00 PM 52 °F - 47 °F 78% 29.67 in 19 mi West 8.9 mph - - Rain Light Rain Showers
7:00 PM 51.8 °F - 46.4 °F 82% 29.65 in 6.2 mi West 9.2 mph - N/A   Scattered Clouds